Juneau, AK

4:38 AM AKDT on March 24, 2017 (GMT -0800)
Juneau International

Weather History for PAJN - May, 2014

Change the Weather History Date:

Saturday, May 17, 2014

  Actual Average Record
Temperature  
Mean Temperature 58 °F 49 °F  
Max Temperature 72 °F 57 °F 72 °F (1945)
Min Temperature 43 °F 41 °F 30 °F (1971)
Degree Days  
Heating Degree Days 7 16  
Month to date heating degree days 194 309  
Since 1 July heating degree days 7578 7837  
Cooling Degree Days 0 0  
Month to date cooling degree days 0 0  
Year to date cooling degree days 0 0  
Growing Degree Days 8 (Base 50)    
Moisture  
Dew Point 41 °F    
Average Humidity 59    
Maximum Humidity 89    
Minimum Humidity 28    
Precipitation  
Precipitation 0.00 in 0.11 in 0.77 in (1949)
Month to date precipitation 0.58 1.82  
Year to date precipitation 18.83 18.02  
Sea Level Pressure  
Sea Level Pressure 29.89 in    
Wind  
Wind Speed 7 mph (South)    
Max Wind Speed 16 mph    
Max Gust Speed 20 mph    
Visibility 10 miles    
Events      
T = Trace of Precipitation, MM = Missing Value Source: NWS Daily Summary

Daily Weather History Graph

Daily Weather History Graph

Search for Another Location

Airport or City:

Trip Planner

Search our weather history database for the weather conditions in past years. The results will help you decide how hot, cold, wet, or windy it might be!

Date:

Astronomy

May. 17, 2014 Rise Set
Actual Time 4:27 AM AKDT 9:23 PM AKDT
Civil Twilight 3:29 AM AKDT 10:22 PM AKDT
Nautical Twilight 1:27 AM AKDT 12:36 AM AKDT
Astronomical Twilight Sun does not rise Sun does not rise
Moon No Moon Rise 7:21 AM AKDT (5/17)
Length of Visible Light 18h 53m
Length of Day
16h 56m
Waning Gibbous, 88% of the Moon is Illuminated
May 17
Waning Gibbous
May 21
Last Quarter
May 28
New
Jun 5
First Quarter
Jun 12
Full

Hourly Weather History & Observations

Time (AKDT) Temp. Windchill Dew Point Humidity Pressure Visibility Wind Dir Wind Speed Gust Speed Precip Events Conditions
12:53 AM 48.0 °F - 39.9 °F 74% 29.93 in 10.0 mi Calm Calm - N/A   Scattered Clouds
1:53 AM 46.0 °F - 39.0 °F 76% 29.92 in 10.0 mi Calm Calm - N/A   Scattered Clouds
2:53 AM 45.0 °F - 41.0 °F 86% 29.92 in 10.0 mi Calm Calm - N/A   Scattered Clouds
3:53 AM 45.0 °F - 39.0 °F 80% 29.92 in 10.0 mi Calm Calm - N/A   Mostly Cloudy
4:53 AM 44.1 °F - 39.9 °F 85% 29.93 in 10.0 mi Calm Calm - N/A   Mostly Cloudy
5:53 AM 46.0 °F 43.9 °F 41.0 °F 83% 29.94 in 10.0 mi ENE 4.6 mph - N/A   Overcast
6:53 AM 51.1 °F - 41.0 °F 68% 29.94 in 10.0 mi East 8.1 mph - N/A   Overcast
7:53 AM 52.0 °F - 41.0 °F 66% 29.94 in 10.0 mi ESE 5.8 mph - N/A   Overcast
8:53 AM 55.0 °F - 41.0 °F 59% 29.94 in 10.0 mi Calm Calm - N/A   Overcast
9:53 AM 59.0 °F - 43.0 °F 55% 29.93 in 10.0 mi WSW 8.1 mph - N/A   Scattered Clouds
10:53 AM 61.0 °F - 43.0 °F 52% 29.92 in 10.0 mi WSW 6.9 mph - N/A   Scattered Clouds
11:53 AM 64.0 °F - 39.0 °F 40% 29.91 in 10.0 mi WSW 8.1 mph - N/A   Scattered Clouds
12:53 PM 66.0 °F - 39.9 °F 38% 29.91 in 10.0 mi WSW 9.2 mph - N/A   Partly Cloudy
1:53 PM 70.0 °F - 39.0 °F 32% 29.89 in 10.0 mi WSW 9.2 mph - N/A   Partly Cloudy
2:53 PM 71.1 °F - 37.0 °F 29% 29.88 in 10.0 mi West 10.4 mph - N/A   Partly Cloudy
3:53 PM 70.0 °F - 36.0 °F 29% 29.86 in 10.0 mi WSW 10.4 mph - N/A   Partly Cloudy
4:53 PM 71.1 °F - 37.0 °F 29% 29.85 in 10.0 mi WSW 8.1 mph - N/A   Clear
5:53 PM 72.0 °F - 37.9 °F 29% 29.85 in 10.0 mi WSW 9.2 mph - N/A   Clear
6:53 PM 66.0 °F - 45.0 °F 47% 29.84 in 10.0 mi East 5.8 mph - N/A   Partly Cloudy
7:53 PM 64.0 °F - 42.1 °F 45% 29.84 in 10.0 mi ENE 9.2 mph - N/A   Partly Cloudy
8:53 PM 60.1 °F - 44.1 °F 55% 29.85 in 10.0 mi ENE 10.4 mph - N/A   Partly Cloudy
9:53 PM 57.9 °F - 43.0 °F 58% 29.85 in 10.0 mi East 10.4 mph - N/A   Partly Cloudy
10:53 PM 55.9 °F - 44.1 °F 64% 29.86 in 10.0 mi East 11.5 mph - N/A   Partly Cloudy
11:53 PM 53.1 °F - 43.0 °F 69% 29.87 in 10.0 mi East 5.8 mph - N/A   Partly Cloudy